Home > Weather > Tananger > Past weeks

Flag for Norway Past Weather in Tananger, Norway — Yesterday and Last 2 Weeks

Now
57 °F

Partly cloudy.


Feels Like: 56 °F
Forecast: 58 / 62 °F
Wind: 7 mph from Southeast

Location: Stavanger / Sola

Current Time: Jul 26, 2016 at 4:42:42 AM

Latest Report: Jul 26, 2016 at 3:50 AM


Visibility: N/A

Pressure: 29.92 "Hg

Humidity: 94%

Dew Point: 55 °F

Location of TanangerLocation

Past Weather in Tananger — Graph

°F

Tananger Temperature Yesterday

Maximum temperature yesterday: 70 °F (at 9:20 AM)
Minimum temperature yesterday: 61 °F (at 11:50 PM)
Average temperature yesterday: 66 °F

High & Low Weather Summary for the Past Weeks

 TemperatureHumidityPressure
High79 °F (Jul 20, 3:20 PM)100% (Jul 17, 1:50 AM)30.15 "Hg (Jul 17, 1:50 AM)
Low50 °F (Jul 17, 1:50 AM)53% (Jul 20, 11:50 PM)29.45 "Hg (Jul 11, 5:50 AM)
Average62 °F82%29.93 "Hg
* Reported Jul 11 2:50 AM — Jul 26 2:50 AM, Tananger, Weather by CustomWeather, © 2016

Note: Actual official high and low records may vary slightly from our data, if they occured in-between our weather recording intervals... More about our weather records

Advertising

Tananger Weather History for the Previous 24 Hours

Scroll right to see more
 ConditionsComfort  
Time TempWeatherWind HumidityBarometerVisibility
2:50 AM
Tue, Jul 26
59 °FPassing clouds.5 mph88%29.92 "HgN/A
1:50 AM61 °FPartly cloudy.5 mph83%29.95 "HgN/A
12:50 AM61 °FPartly cloudy.5 mph88%29.95 "HgN/A
11:50 PM
Mon, Jul 25
61 °FMostly cloudy.3 mph88%29.92 "HgN/A
11:20 PM63 °FPartly cloudy.5 mph83%29.95 "HgN/A
10:50 PM63 °FBroken clouds.6 mph83%29.92 "HgN/A
10:20 PM63 °FBroken clouds.8 mph83%29.92 "HgN/A
9:50 PM63 °FBroken clouds.9 mph83%29.92 "HgN/A
9:20 PM63 °FPartly sunny.9 mph83%29.92 "HgN/A
8:50 PM64 °FBroken clouds.9 mph88%29.92 "HgN/A
8:20 PM64 °FBroken clouds.12 mph88%29.89 "HgN/A
7:50 PM64 °FBroken clouds.10 mph88%29.92 "HgN/A
7:20 PM66 °FPartly sunny.13 mph83%29.89 "HgN/A
6:50 PM66 °FPartly sunny.12 mph83%29.89 "HgN/A
6:20 PM66 °FBroken clouds.16 mph88%29.89 "HgN/A
5:50 PM66 °FScattered showers. Broken clouds.17 mph88%29.89 "Hg6 mi
5:20 PM64 °FSprinkles. Broken clouds.10 mph94%29.89 "HgN/A
4:50 PM64 °FScattered showers. Broken clouds.15 mph94%29.89 "HgN/A
4:20 PM66 °FDrizzle. Partly sunny.17 mph83%29.89 "HgN/A
3:50 PM70 °FLight rain. Partly sunny.16 mph69%29.86 "HgN/A
3:20 PM68 °FBroken clouds.15 mph78%29.89 "HgN/A
2:50 PM66 °FSprinkles. Broken clouds.14 mph83%29.89 "HgN/A
2:20 PM68 °FBroken clouds.16 mph78%29.89 "HgN/A
1:50 PM68 °FLight rain. Broken clouds.14 mph78%29.89 "HgN/A
1:20 PM70 °FBroken clouds.16 mph73%29.89 "HgN/A
12:50 PM70 °FBroken clouds.16 mph73%29.89 "HgN/A
12:20 PM70 °FPartly sunny.13 mph73%29.89 "HgN/A
11:50 AM70 °FBroken clouds.15 mph73%29.89 "HgN/A
11:20 AM70 °FBroken clouds.16 mph78%29.89 "HgN/A
10:50 AM68 °FBroken clouds.14 mph83%29.89 "HgN/A
10:20 AM70 °FBroken clouds.9 mph78%29.92 "HgN/A
9:50 AM70 °FBroken clouds.9 mph73%29.92 "HgN/A
9:20 AM70 °FBroken clouds.10 mph73%29.92 "HgN/A
8:50 AM68 °FBroken clouds.7 mph83%29.92 "HgN/A
8:20 AM66 °FBroken clouds.3 mph83%29.92 "HgN/A
7:50 AM66 °FBroken clouds.No wind83%29.92 "HgN/A
7:20 AM64 °FPartly sunny.No wind83%29.92 "HgN/A
6:50 AM64 °FLight rain. Partly sunny.5 mph83%29.92 "HgN/A
6:20 AM64 °FScattered clouds.3 mph83%29.95 "HgN/A
5:50 AM64 °FPassing clouds.3 mph78%29.95 "HgN/A
4:50 AM63 °FPassing clouds.3 mph83%29.98 "HgN/A
Weather by CustomWeather, © 2016

See weather overviewHow to use our weather pages